User: anonymous   Login
Location: Unspecified
(0.0000°N, 0.0000°E)
Time: 07:40:13
(UTC+00:00)
Language:

ARIANE 5 DEB (SYLDA) - Orbit

View from above orbital plane
View from above orbital plane
View from above satellite
View from above satellite

Ground track
Ground track

The orbit data is extracted from the following two-line orbital elements,

1 26722U 01011D   17058.08723179 -.00000099  00000-0  49504-2 0  9993
2 26722   2.0235  57.0798 7072686 307.2908 159.5546  2.22881484130114
Epoch (UTC): 27 February 2017 02:05:36
Eccentricity: 0.7072686
inclination: 2.0235°
perigee height: 869 km
apogee height: 35887 km
right ascension of ascending node: 57.0798°
argument of perigee: 307.2908°
revolutions per day: 2.22881484
mean anomaly at epoch: 159.5546°
orbit number at epoch: 13011

The dashed part of the orbit path shows where the satellite is in the earth's shadow,  

DLR